Time,TemperatureF,DewpointF,PressureIn,WindDirection,WindDirectionDegrees,WindSpeedMPH,WindSpeedGustMPH,Humidity,HourlyPrecipIn,Conditions,Clouds,dailyrainin,SoftwareType,DateUTC
2015-04-26 00:02:00,50.2,28.6,0.00,North,-9999,-999.9,-999.0,43,0.00,,---,0.00,VWS V15.00,2015-04-26 07:02:00,
2015-04-26 00:07:00,50.2,28.6,0.00,North,-9999,-999.9,-999.0,43,0.00,,---,0.00,VWS V15.00,2015-04-26 07:07:00,
2015-04-26 00:12:00,50.0,29.0,0.00,North,-9999,-999.9,-999.0,44,0.00,,---,0.00,VWS V15.00,2015-04-26 07:12:00,
2015-04-26 00:17:00,49.8,28.8,0.00,North,-9999,-999.9,-999.0,44,0.00,,---,0.00,VWS V15.00,2015-04-26 07:17:00,
2015-04-26 00:22:00,50.0,29.0,0.00,North,-9999,-999.9,-999.0,44,0.00,,---,0.00,VWS V15.00,2015-04-26 07:22:00,
2015-04-26 00:27:00,50.0,29.0,0.00,North,-9999,-999.9,-999.0,44,0.00,,---,0.00,VWS V15.00,2015-04-26 07:27:00,
2015-04-26 00:32:00,49.8,29.4,0.00,North,-9999,-999.9,-999.0,45,0.00,,---,0.00,VWS V15.00,2015-04-26 07:32:00,
2015-04-26 00:37:00,49.8,29.4,0.00,North,-9999,-999.9,-999.0,45,0.00,,---,0.00,VWS V15.00,2015-04-26 07:37:00,
2015-04-26 00:42:00,49.6,29.2,0.00,North,-9999,-999.9,-999.0,45,0.00,,---,0.00,VWS V15.00,2015-04-26 07:42:00,
2015-04-26 00:47:00,49.5,29.0,0.00,North,-9999,-999.9,-999.0,45,0.00,,---,0.00,VWS V15.00,2015-04-26 07:47:00,
2015-04-26 00:52:00,49.3,28.9,0.00,North,-9999,-999.9,-999.0,45,0.00,,---,0.00,VWS V15.00,2015-04-26 07:52:00,
2015-04-26 00:57:00,49.3,28.9,0.00,North,-9999,-999.9,-999.0,45,0.00,,---,0.00,VWS V15.00,2015-04-26 07:57:00,
2015-04-26 01:02:00,49.5,29.0,0.00,North,-9999,-999.9,-999.0,45,0.00,,---,0.00,VWS V15.00,2015-04-26 08:02:00,
2015-04-26 01:07:00,49.3,28.9,0.00,North,-9999,-999.9,-999.0,45,0.00,,---,0.00,VWS V15.00,2015-04-26 08:07:00,
2015-04-26 01:12:00,49.3,28.9,0.00,North,-9999,-999.9,-999.0,45,0.00,,---,0.00,VWS V15.00,2015-04-26 08:12:00,
2015-04-26 01:18:00,49.1,28.7,0.00,North,-9999,-999.9,-999.0,45,0.00,,---,0.00,VWS V15.00,2015-04-26 08:18:00,
2015-04-26 01:23:00,48.9,29.1,0.00,North,-9999,-999.9,-999.0,46,0.00,,---,0.00,VWS V15.00,2015-04-26 08:23:00,
2015-04-26 01:28:00,48.7,28.9,0.00,North,-9999,-999.9,-999.0,46,0.00,,---,0.00,VWS V15.00,2015-04-26 08:28:00,
2015-04-26 01:33:00,48.7,28.9,0.00,North,-9999,-999.9,-999.0,46,0.00,,---,0.00,VWS V15.00,2015-04-26 08:33:00,
2015-04-26 01:37:00,48.6,28.7,0.00,North,-9999,-999.9,-999.0,46,0.00,,---,0.00,VWS V15.00,2015-04-26 08:37:00,
2015-04-26 01:42:00,48.6,28.7,0.00,North,-9999,-999.9,-999.0,46,0.00,,---,0.00,VWS V15.00,2015-04-26 08:42:00,
2015-04-26 01:47:00,48.4,29.1,0.00,North,-9999,-999.9,-999.0,47,0.00,,---,0.00,VWS V15.00,2015-04-26 08:47:00,
2015-04-26 01:52:00,48.4,29.1,0.00,North,-9999,-999.9,-999.0,47,0.00,,---,0.00,VWS V15.00,2015-04-26 08:52:00,
2015-04-26 01:57:00,48.6,29.3,0.00,North,-9999,-999.9,-999.0,47,0.00,,---,0.00,VWS V15.00,2015-04-26 08:57:00,
2015-04-26 02:02:00,48.7,29.4,0.00,North,-9999,-999.9,-999.0,47,0.00,,---,0.00,VWS V15.00,2015-04-26 09:02:00,
2015-04-26 02:07:00,48.6,29.3,0.00,North,-9999,-999.9,-999.0,47,0.00,,---,0.00,VWS V15.00,2015-04-26 09:07:00,
2015-04-26 02:12:00,48.4,29.1,0.00,North,-9999,-999.9,-999.0,47,0.00,,---,0.00,VWS V15.00,2015-04-26 09:12:00,
2015-04-26 02:17:00,48.4,29.1,0.00,North,-9999,-999.9,-999.0,47,0.00,,---,0.00,VWS V15.00,2015-04-26 09:17:00,
2015-04-26 02:22:00,48.2,28.9,0.00,North,-9999,-999.9,-999.0,47,0.00,,---,0.00,VWS V15.00,2015-04-26 09:22:00,
2015-04-26 02:27:00,46.0,42.6,29.86,East,93,0.0,0.0,88,0.00,,,0.00,WS-1001 V2.1.7,2015-04-26 09:27:00,
2015-04-26 02:32:00,48.0,29.3,0.00,North,-9999,-999.9,-999.0,48,0.00,,---,0.00,VWS V15.00,2015-04-26 09:32:00,
2015-04-26 02:37:00,47.8,29.1,0.00,North,-9999,-999.9,-999.0,48,0.00,,---,0.00,VWS V15.00,2015-04-26 09:37:00,
2015-04-26 02:42:00,45.3,42.8,29.85,East,98,0.0,0.0,91,0.00,,,0.00,WS-1001 V2.1.7,2015-04-26 09:42:00,
2015-04-26 02:47:00,47.7,29.5,0.00,North,-9999,-999.9,-999.0,49,0.00,,---,0.00,VWS V15.00,2015-04-26 09:47:00,
2015-04-26 02:52:00,47.7,29.5,0.00,North,-9999,-999.9,-999.0,49,0.00,,---,0.00,VWS V15.00,2015-04-26 09:52:00,
2015-04-26 02:57:00,47.5,29.3,0.00,North,-9999,-999.9,-999.0,49,0.00,,---,0.00,VWS V15.00,2015-04-26 09:57:00,
2015-04-26 03:02:00,47.3,29.1,0.00,North,-9999,-999.9,-999.0,49,0.00,,---,0.00,VWS V15.00,2015-04-26 10:02:00,
2015-04-26 03:07:00,47.3,29.1,0.00,North,-9999,-999.9,-999.0,49,0.00,,---,0.00,VWS V15.00,2015-04-26 10:07:00,
2015-04-26 03:12:00,47.3,29.1,0.00,North,-9999,-999.9,-999.0,49,0.00,,---,0.00,VWS V15.00,2015-04-26 10:12:00,
2015-04-26 03:17:00,47.1,29.5,0.00,North,-9999,-999.9,-999.0,50,0.00,,---,0.00,VWS V15.00,2015-04-26 10:17:00,
2015-04-26 03:22:00,47.1,29.5,0.00,North,-9999,-999.9,-999.0,50,0.00,,---,0.00,VWS V15.00,2015-04-26 10:22:00,
2015-04-26 03:27:00,47.1,29.5,0.00,North,-9999,-999.9,-999.0,50,0.00,,---,0.00,VWS V15.00,2015-04-26 10:27:00,
2015-04-26 03:32:00,46.9,29.3,0.00,North,-9999,-999.9,-999.0,50,0.00,,---,0.00,VWS V15.00,2015-04-26 10:32:00,
2015-04-26 03:37:00,46.9,29.3,0.00,North,-9999,-999.9,-999.0,50,0.00,,---,0.00,VWS V15.00,2015-04-26 10:37:00,
2015-04-26 03:42:00,46.8,29.6,0.00,North,-9999,-999.9,-999.0,51,0.00,,---,0.00,VWS V15.00,2015-04-26 10:42:00,
2015-04-26 03:47:00,46.8,29.6,0.00,North,-9999,-999.9,-999.0,51,0.00,,---,0.00,VWS V15.00,2015-04-26 10:47:00,